YO8RXT-3 Weather Reports


Display with metric or nautical units.
time (UTC)temp
F
wind
direction
speed
MPH
gust
MPH
rain 1hr
in
rain 24hr
in
rain mn
in
humidity
%
barometer
mb
20260906073502 63 220 6.0 0.0 0.00 0.00 0.00 77 1019.0
20260906070502 61 260 7.0 0.0 0.00 0.00 0.00 77 1020.0
20260906063503 61 230 7.0 0.0 0.00 0.00 0.00 77 1019.0
20260906060502 63 340 9.0 0.0 0.00 0.00 0.00 68
20260906053503 61 290 9.0 0.0 0.00 0.00 0.00 77 1019.0
20260906050502 61 310 11.0 0.0 0.00 0.00 0.00 83 1019.0
20260906043502 61 250 3.0 0.0 0.00 0.00 0.00 83 1018.0
20260906040502 59 240 5.0 0.0 0.00 0.00 0.00 88 1018.0
20260906033502 59 230 6.0 0.0 0.00 0.00 0.00 88 1017.0
20260906030502 59 230 5.0 0.0 0.00 0.00 0.00 88 1017.0
20260906023503 59 230 3.0 0.0 0.00 0.00 0.00 88 1017.0
20260906020503 61 220 2.0 0.0 0.00 0.00 0.00 83 1017.0
20260906013502 61 240 3.0 0.0 0.00 0.00 0.00 88 1017.0
20260906010501 61 190 5.0 0.0 0.00 0.00 0.00 88 1017.0
20260906003501 61 230 5.0 0.0 0.00 0.00 0.00 88 1017.0
20260906000502 61 220 5.0 0.0 0.00 0.00 0.00 88 1017.0
20260905233502 61 250 5.0 0.0 0.00 0.00 0.00 88 1017.0
20260905230503 63 240 5.0 0.0 0.00 0.00 0.00 83 1018.0
20260905223502 63 240 6.0 0.0 0.00 0.00 0.00 83 1018.0
20260905220501 61 240 6.0 0.0 0.00 0.00 0.00 88
20260905213502 61 260 6.0 0.0 0.00 0.00 0.00 88 1017.0
20260905210502 61 260 7.0 0.0 0.00 0.00 0.00 88 1017.0
20260905203503 61 270 6.0 0.0 0.00 0.00 0.00 88 1017.0
20260905200502 61 280 6.0 0.0 0.00 0.00 0.00 94 1016.0
20260905193502 63 250 5.0 0.0 0.00 0.00 0.00 88 1017.0
20260905190502 63 240 5.0 0.0 0.00 0.00 0.00 88 1017.0
20260905183503 63 270 6.0 0.0 0.00 0.00 0.00 88 1017.0
20260905180503 63 320 7.0 0.0 0.00 0.00 0.00 88 1016.0
20260905173502 63 320 6.0 0.0 0.00 0.00 0.00 88 1016.0
20260905170502 72 320 9.0 0.0 0.00 0.00 0.00 50 1016.0
20260905163502 72 360 5.0 0.0 0.00 0.00 0.00 47 1015.0
20260905160502 72 320 20.0 0.0 0.00 0.00 0.00 47 1015.0
20260905153503 73 320 17.0 29.0 0.00 0.00 0.00 47 1014.0
20260905150502 75 330 26.0 38.0 0.00 0.00 0.00 47 1013.0
20260905143502 77 330 31.0 0.0 0.00 0.00 0.00 42 1012.0
20260905140502 90 300 11.0 0.0 0.00 0.00 0.00 29 1012.0
20260905133502 91 250 6.0 0.0 0.00 0.00 0.00 28 1011.0
20260905130502 91 270 7.0 0.0 0.00 0.00 0.00 28 1011.0
20260905123502 90 7.0 0.0 0.00 0.00 0.00 27 1012.0
20260905120502 91 260 7.0 0.0 0.00 0.00 0.00 28 1012.0
20260905113503 90 210 8.0 0.0 0.00 0.00 0.00 29 1012.0
20260905110502 88 190 7.0 0.0 0.00 0.00 0.00 31 1012.0
20260905103503 88 190 6.0 0.0 0.00 0.00 0.00 31 1013.0
20260905100502 88 200 8.0 0.0 0.00 0.00 0.00 31 1013.0
20260905093502 88 220 8.0 0.0 0.00 0.00 0.00 33 1013.0
20260905090503 86 210 8.0 0.0 0.00 0.00 0.00 33 1013.0
20260905083503 84 240 8.0 0.0 0.00 0.00 0.00 35 1013.0
20260905080502 82 240 7.0 0.0 0.00 0.00 0.00 37 1014.0